Weather History for EINN - November, 2011

Change the Weather History Date:

Monday, November 14, 2011

  Actual Average Record
Temperature  
Mean Temperature 55 °F -  
Max Temperature 59 °F 50 °F 59 °F (1997)
Min Temperature 51 °F 39 °F 33 °F (2010)
Degree Days  
Heating Degree Days 10    
Growing Degree Days 5 (Base 50)    
Moisture  
Dew Point 53 °F    
Average Humidity 91    
Maximum Humidity 94    
Minimum Humidity 80    
Precipitation  
Precipitation 0.00 in 0.13 in - ()
Sea Level Pressure  
Sea Level Pressure 30.03 in    
Wind  
Wind Speed 12 mph ()    
Max Wind Speed 16 mph    
Max Gust Speed -    
Visibility 4.9 miles    
Events      
Averages and records for this station are not official NWS values.
T = Trace of Precipitation, MM = Missing Value Source: Averaged Metar Reports

Daily Weather History Graph

Daily Weather History Graph

Search for Another Location

Airport or City:

Trip Planner

Search our weather history database for the weather conditions in past years. The results will help you decide how hot, cold, wet, or windy it might be!

Date:

Astronomy

Nov. 14, 2011 Rise Set
Actual Time 7:55 AM GMT 4:43 PM GMT
Civil Twilight 7:17 AM GMT 5:21 PM GMT
Nautical Twilight 6:35 AM GMT 6:03 PM GMT
Astronomical Twilight 5:55 AM GMT 6:43 PM GMT
Moon 7:25 PM GMT (11/14) 11:17 AM GMT (11/14)
Length of Visible Light 10h 04m
Length of Day
8h 48m
Waning Gibbous, 88% of the Moon is Illuminated
Nov 14
Waning Gibbous
Nov 18
Last Quarter
Nov 25
New
Dec 2
First Quarter
Dec 10
Full

Hourly Weather History & Observations

Time (GMT) Temp. Dew Point Humidity Pressure Visibility Wind Dir Wind Speed Gust Speed Precip Events Conditions
12:00 AM 58 °F 54 °F 80% 30.01 in 12 mi ESE 15.7 mph - -   Overcast
12:00 AM 57.2 °F 53.6 °F 88% 30.01 in 6.2 mi ESE 16.1 mph - N/A   Mostly Cloudy
12:30 AM 59.0 °F 53.6 °F 82% 30.01 in 6.2 mi ESE 11.5 mph - N/A   Mostly Cloudy
1:00 AM 59.0 °F 53.6 °F 82% 30.04 in 6.2 mi SE 13.8 mph - N/A   Mostly Cloudy
1:30 AM 59.0 °F 53.6 °F 82% 30.04 in 6.2 mi SE 16.1 mph - N/A   Mostly Cloudy
2:00 AM 57.2 °F 53.6 °F 88% 30.04 in 6.2 mi SE 15.0 mph - N/A   Mostly Cloudy
2:30 AM 59.0 °F 53.6 °F 82% 30.04 in 6.2 mi ESE 11.5 mph - N/A   Mostly Cloudy
3:00 AM 57.2 °F 53.6 °F 88% 30.04 in 6.2 mi ESE 12.7 mph - N/A   Mostly Cloudy
3:30 AM 57.2 °F 53.6 °F 88% 30.04 in 6.2 mi ESE 11.5 mph - N/A   Mostly Cloudy
4:00 AM 57.2 °F 53.6 °F 88% 30.04 in 6.2 mi ESE 10.4 mph - N/A   Mostly Cloudy
4:30 AM 55.4 °F 53.6 °F 94% 30.04 in 6.2 mi ESE 11.5 mph - N/A   Mostly Cloudy
5:00 AM 57.2 °F 53.6 °F 88% 30.04 in 6.2 mi ESE 13.8 mph - N/A   Mostly Cloudy
5:30 AM 57.2 °F 53.6 °F 88% 30.04 in 6.2 mi ESE 13.8 mph - N/A   Mostly Cloudy
6:00 AM 56 °F 53 °F 87% 30.06 in 9 mi ESE 6.7 mph - -   Mist
6:00 AM 55.4 °F 53.6 °F 94% 30.04 in 6.2 mi ESE 5.8 mph - N/A   Mostly Cloudy
6:30 AM 55.4 °F 53.6 °F 94% 30.04 in 6.2 mi SE 10.4 mph - N/A   Scattered Clouds
7:00 AM 55.4 °F 53.6 °F 94% 30.06 in 6.2 mi ESE 6.9 mph - N/A   Scattered Clouds
7:30 AM 55.4 °F 53.6 °F 94% 30.06 in 5.6 mi ESE 9.2 mph - N/A   Mostly Cloudy
8:00 AM 55.4 °F 53.6 °F 94% 30.06 in 5.6 mi ESE 11.5 mph - N/A   Mostly Cloudy
8:30 AM 55.4 °F 53.6 °F 94% 30.06 in 5.6 mi ESE 11.5 mph - N/A   Mostly Cloudy
9:00 AM 55.4 °F 53.6 °F 94% 30.06 in 5.6 mi East 10.4 mph - N/A   Mostly Cloudy
9:30 AM 55.4 °F 53.6 °F 94% 30.06 in 6.2 mi ESE 8.1 mph - N/A   Mostly Cloudy
10:00 AM 55.4 °F 53.6 °F 94% 30.06 in 5.6 mi ESE 9.2 mph - N/A   Mostly Cloudy
10:30 AM 55.4 °F 53.6 °F 94% 30.06 in 3.1 mi ESE 11.5 mph - N/A   Mostly Cloudy
11:00 AM 55.4 °F 53.6 °F 94% 30.06 in 3.1 mi East 12.7 mph - N/A   Mostly Cloudy
11:30 AM 55.4 °F 53.6 °F 94% 30.06 in 3.1 mi ESE 13.8 mph - N/A   Mostly Cloudy
12:00 PM 56 °F 53 °F 88% 30.06 in 3 mi ESE 15.7 mph - -   Mist
12:00 PM 55.4 °F 53.6 °F 94% 30.04 in 3.1 mi ESE 15.0 mph - N/A   Mostly Cloudy
12:30 PM 55.4 °F 53.6 °F 94% 30.04 in 3.1 mi East 12.7 mph - N/A   Mostly Cloudy
1:00 PM 55.4 °F 53.6 °F 94% 30.04 in 3.1 mi ESE 15.0 mph - N/A   Mostly Cloudy
1:30 PM 55.4 °F 53.6 °F 94% 30.04 in 3.7 mi ESE 15.0 mph - N/A   Mostly Cloudy
2:00 PM 55.4 °F 53.6 °F 94% 30.04 in 3.7 mi East 15.0 mph - N/A   Overcast
2:30 PM 55.4 °F 51.8 °F 88% 30.01 in 5.0 mi East 13.8 mph - N/A   Overcast
3:00 PM 55.4 °F 51.8 °F 88% 30.01 in 4.3 mi East 12.7 mph - N/A   Mostly Cloudy
3:30 PM 55.4 °F 51.8 °F 88% 30.04 in 3.7 mi East 15.0 mph - N/A   Mostly Cloudy
4:00 PM 55.4 °F 51.8 °F 88% 30.01 in 3.7 mi East 12.7 mph - N/A   Mostly Cloudy
4:30 PM 53.6 °F 51.8 °F 94% 30.04 in 2.8 mi East 12.7 mph - N/A   Mostly Cloudy
5:00 PM 53.6 °F 51.8 °F 94% 30.01 in 3.7 mi ESE 13.8 mph - N/A   Mostly Cloudy
5:30 PM 53.6 °F 51.8 °F 94% 30.04 in 3.7 mi ESE 11.5 mph - N/A   Mostly Cloudy
6:00 PM 53.6 °F 51.8 °F 94% 30.04 in 5.0 mi East 12.7 mph - N/A   Mostly Cloudy
6:30 PM 53.6 °F 51.8 °F 94% 30.01 in 3.7 mi ESE 12.7 mph - N/A   Mostly Cloudy
7:00 PM 53.6 °F 51.8 °F 94% 30.01 in 3.1 mi ESE 12.7 mph - N/A   Mostly Cloudy
7:30 PM 53.6 °F 51.8 °F 94% 30.01 in 3.1 mi East 11.5 mph - N/A   Mostly Cloudy
8:00 PM 53.6 °F 50.0 °F 88% 30.01 in 3.1 mi ESE 13.8 mph - N/A   Mostly Cloudy
8:30 PM 53.6 °F 50.0 °F 88% 30.01 in 3.1 mi East 13.8 mph - N/A   Mostly Cloudy
9:00 PM 53.6 °F 50.0 °F 88% 30.01 in 3.7 mi East 11.5 mph - N/A   Mostly Cloudy
9:30 PM 53.6 °F 50.0 °F 88% 30.01 in 4.3 mi ESE 12.7 mph - N/A   Mostly Cloudy
10:00 PM 51.8 °F 50.0 °F 94% 30.01 in 3.7 mi East 11.5 mph - N/A   Mostly Cloudy
10:30 PM 51.8 °F 50.0 °F 94% 30.01 in 4.3 mi ESE 12.7 mph - N/A   Mostly Cloudy
11:00 PM 51.8 °F 50.0 °F 94% 30.01 in 3.7 mi East 11.5 mph - N/A   Mostly Cloudy
11:30 PM 51.8 °F 50.0 °F 94% 30.01 in 6.2 mi ESE 11.5 mph - N/A   Mostly Cloudy